| time (UTC) | temp F | wind direction | speed MPH | gust MPH | rain 1hr in | rain 24hr in | rain mn in | humidity % | barometer mb |
| 20260901172325 | 88 | 229 | 2.0 | 5.0 | 0.00 | 0.00 | 0.00 | 51 | 1019.8 |
| 20260901171813 | 88 | 103 | 1.0 | 6.0 | 0.00 | 0.00 | 0.00 | 51 | 1019.7 |
| 20260901171523 | 87 | 254 | 2.0 | 6.0 | 0.00 | 0.00 | 0.00 | 54 | 1016.3 |
| 20260901171344 | 87 | 315 | 2.0 | 6.0 | 0.00 | 0.00 | 0.00 | 50 | 1019.7 |
| 20260901170815 | 87 | 208 | 1.0 | 3.0 | 0.00 | 0.00 | 0.00 | 52 | 1019.7 |
| 20260901170328 | 86 | 277 | 1.0 | 4.0 | 0.00 | 0.00 | 0.00 | 52 | 1019.6 |
| 20260901170005 | 86 | 146 | 1.0 | 4.0 | 0.00 | 0.00 | 0.00 | 55 | 1016.2 |
| 20260901165815 | 86 | 221 | 1.0 | 4.0 | 0.00 | 0.08 | 0.00 | 52 | 1019.6 |
| 20260901165326 | 86 | 221 | 1.0 | 5.0 | 0.00 | 0.08 | 0.00 | 52 | 1019.6 |
| 20260901164813 | 87 | 223 | 4.0 | 5.0 | 0.00 | 0.08 | 0.00 | 52 | 1019.5 |
| 20260901164506 | 86 | 83 | 1.0 | 4.0 | 0.00 | 0.00 | 0.00 | 56 | 1016.0 |
| 20260901164325 | 86 | 156 | 2.0 | 4.0 | 0.00 | 0.08 | 0.00 | 53 | 1019.5 |
| 20260901163813 | 87 | 58 | 1.0 | 2.0 | 0.00 | 0.08 | 0.00 | 52 | 1019.4 |
| 20260901163324 | 86 | 92 | 1.0 | 2.0 | 0.00 | 0.08 | 0.00 | 53 | 1019.4 |
| 20260901163009 | 85 | 192 | 1.0 | 4.0 | 0.00 | 0.02 | 0.00 | 57 | 1016.0 |
| 20260901162832 | 86 | 137 | 0.0 | 4.0 | 0.00 | 0.08 | 0.00 | 54 | 1019.5 |
| 20260901162323 | 86 | 136 | 2.0 | 4.0 | 0.00 | 0.08 | 0.00 | 54 | 1019.5 |
| 20260901161815 | 86 | 150 | 1.0 | 2.0 | 0.00 | 0.08 | 0.00 | 54 | 1019.4 |
| 20260901161520 | 85 | 107 | 1.0 | 2.0 | 0.00 | 0.04 | 0.00 | 58 | 1016.0 |
| 20260901161327 | 86 | 140 | 1.0 | 2.0 | 0.00 | 0.08 | 0.00 | 54 | 1019.4 |
| 20260901160835 | 85 | 76 | 2.0 | 3.0 | 0.00 | 0.08 | 0.00 | 55 | 1019.5 |
| 20260901160324 | 85 | 105 | 1.0 | 3.0 | 0.00 | 0.08 | 0.00 | 54 | 1019.4 |
| 20260901160023 | 84 | 153 | 2.0 | 3.0 | 0.00 | 0.08 | 0.00 | 58 | 1015.9 |
| 20260901155813 | 85 | 119 | 1.0 | 3.0 | 0.00 | 0.23 | 0.00 | 55 | 1019.4 |
| 20260901155345 | 84 | 92 | 1.0 | 3.0 | 0.00 | 0.23 | 0.00 | 54 | 1019.3 |
| 20260901154830 | 85 | 157 | 1.0 | 3.0 | 0.00 | 0.23 | 0.00 | 54 | 1019.2 |
| 20260901154504 | 84 | 95 | 1.0 | 3.0 | 0.00 | 0.11 | 0.00 | 56 | 1015.8 |
| 20260901154322 | 84 | 111 | 2.0 | 3.0 | 0.00 | 0.23 | 0.00 | 52 | 1019.2 |
| 20260901153829 | 84 | 145 | 1.0 | 3.0 | 0.00 | 0.23 | 0.00 | 53 | 1019.2 |
| 20260901153320 | 84 | 98 | 1.0 | 2.0 | 0.00 | 0.23 | 0.00 | 54 | 1019.2 |
| 20260901153007 | 83 | 124 | 0.0 | 2.0 | 0.00 | 0.13 | 0.00 | 57 | 1015.7 |
| 20260901152827 | 84 | 124 | 0.0 | 2.0 | 0.00 | 0.23 | 0.00 | 54 | 1019.2 |
| 20260901152323 | 84 | 144 | 1.0 | 3.0 | 0.00 | 0.23 | 0.00 | 54 | 1019.2 |
| 20260901151851 | 84 | 102 | 1.0 | 3.0 | 0.00 | 0.23 | 0.00 | 54 | 1019.2 |
| 20260901151526 | 83 | 94 | 1.0 | 2.0 | 0.00 | 0.14 | 0.00 | 57 | 1015.8 |
| 20260901151321 | 83 | 119 | 1.0 | 2.0 | 0.00 | 0.23 | 0.00 | 55 | 1019.2 |
| 20260901150827 | 82 | 129 | 0.0 | 2.0 | 0.00 | 0.23 | 0.00 | 56 | 1019.2 |
| 20260901150340 | 82 | 128 | 0.0 | 2.0 | 0.00 | 0.23 | 0.00 | 57 | 1019.2 |
| 20260901150021 | 81 | 101 | 1.0 | 2.0 | 0.00 | 0.21 | 0.00 | 61 | 1015.7 |
| 20260901145826 | 82 | 100 | 1.0 | 2.0 | 0.00 | 0.24 | 0.00 | 58 | 1019.2 |
| 20260901145318 | 81 | 169 | 0.0 | 2.0 | 0.00 | 0.24 | 0.00 | 59 | 1019.2 |
| 20260901144826 | 81 | 96 | 0.0 | 2.0 | 0.00 | 0.24 | 0.00 | 59 | 1019.1 |
| 20260901144527 | 80 | 87 | 0.0 | 2.0 | 0.00 | 0.24 | 0.00 | 63 | 1015.6 |
| 20260901144318 | 80 | 82 | 1.0 | 2.0 | 0.00 | 0.24 | 0.00 | 61 | 1019.1 |
| 20260901143825 | 80 | 125 | 0.0 | 2.0 | 0.00 | 0.24 | 0.00 | 62 | 1019.0 |
| 20260901143337 | 79 | 220 | 1.0 | 2.0 | 0.00 | 0.24 | 0.00 | 63 | 1019.0 |
| 20260901143006 | 79 | 192 | 1.0 | 2.0 | 0.00 | 0.24 | 0.00 | 67 | 1015.6 |
| 20260901142823 | 79 | 211 | 1.0 | 2.0 | 0.00 | 0.24 | 0.00 | 65 | 1019.1 |
| 20260901142318 | 79 | 87 | 0.0 | 2.0 | 0.00 | 0.24 | 0.00 | 64 | 1019.0 |
| 20260901141826 | 79 | 87 | 0.0 | 2.0 | 0.00 | 0.24 | 0.00 | 66 | 1019.0 |
| 20260901141516 | 78 | 87 | 0.0 | 2.0 | 0.00 | 0.24 | 0.00 | 70 | 1015.5 |
| 20260901141318 | 78 | 87 | 0.0 | 2.0 | 0.00 | 0.24 | 0.00 | 66 | 1019.0 |
| 20260901140826 | 78 | 87 | 0.0 | 2.0 | 0.00 | 0.24 | 0.00 | 67 | 1018.9 |
| 20260901140318 | 77 | 87 | 0.0 | 2.0 | 0.00 | 0.24 | 0.00 | 69 | 1019.0 |
| 20260901140020 | 77 | 87 | 0.0 | 2.0 | 0.00 | 0.24 | 0.00 | 73 | 1015.5 |
| 20260901135825 | 77 | 87 | 0.0 | 2.0 | 0.00 | 0.24 | 0.00 | 70 | 1018.9 |
| 20260901135316 | 77 | 87 | 0.0 | 2.0 | 0.00 | 0.24 | 0.00 | 69 | 1018.9 |
| 20260901134823 | 77 | 87 | 0.0 | 3.0 | 0.00 | 0.24 | 0.00 | 71 | 1018.8 |
| 20260901134536 | 76 | 87 | 1.0 | 3.0 | 0.00 | 0.24 | 0.00 | 74 | 1015.4 |
| 20260901134318 | 76 | 98 | 1.0 | 3.0 | 0.00 | 0.24 | 0.00 | 71 | 1018.8 |
| 20260901133826 | 76 | 84 | 0.0 | 2.0 | 0.00 | 0.24 | 0.00 | 71 | 1018.7 |
| 20260901133317 | 76 | 84 | 0.0 | 2.0 | 0.00 | 0.24 | 0.00 | 72 | 1018.7 |
| 20260901133006 | 75 | 84 | 0.0 | 2.0 | 0.00 | 0.24 | 0.00 | 76 | 1015.2 |
| 20260901132825 | 76 | 84 | 0.0 | 2.0 | 0.00 | 0.24 | 0.00 | 72 | 1018.6 |
| 20260901132316 | 75 | 80 | 1.0 | 2.0 | 0.00 | 0.24 | 0.00 | 74 | 1018.5 |
| 20260901131822 | 75 | 89 | 1.0 | 3.0 | 0.00 | 0.24 | 0.00 | 74 | 1018.5 |
| 20260901131512 | 74 | 82 | 2.0 | 3.0 | 0.00 | 0.24 | 0.00 | 78 | 1015.1 |
| 20260901131313 | 75 | 80 | 1.0 | 2.0 | 0.00 | 0.24 | 0.00 | 75 | 1018.4 |
| 20260901130820 | 74 | 112 | 0.0 | 2.0 | 0.00 | 0.24 | 0.00 | 76 | 1018.4 |
| 20260901130332 | 74 | 112 | 0.0 | 0.0 | 0.00 | 0.24 | 0.00 | 76 | 1018.4 |
| 20260901130016 | 74 | 112 | 0.0 | 0.0 | 0.00 | 0.24 | 0.00 | 79 | 1015.0 |
| 20260901125819 | 75 | 112 | 0.0 | 0.0 | 0.00 | 0.24 | 0.00 | 75 | 1018.5 |
| 20260901125314 | 74 | 112 | 0.0 | 0.0 | 0.00 | 0.24 | 0.00 | 75 | 1018.4 |
| 20260901124822 | 75 | 112 | 0.0 | 2.0 | 0.00 | 0.24 | 0.00 | 75 | 1018.5 |
| 20260901124524 | 74 | 112 | 0.0 | 2.0 | 0.00 | 0.24 | 0.00 | 79 | 1015.0 |
| 20260901124313 | 74 | 112 | 0.0 | 2.0 | 0.00 | 0.24 | 0.00 | 75 | 1018.4 |
| 20260901123821 | 74 | 112 | 0.0 | 2.0 | 0.00 | 0.24 | 0.00 | 76 | 1018.4 |
| 20260901123352 | 74 | 112 | 0.0 | 0.0 | 0.00 | 0.24 | 0.00 | 76 | 1018.4 |
| 20260901123033 | 74 | 112 | 0.0 | 0.0 | 0.00 | 0.24 | 0.00 | 80 | 1014.9 |
| 20260901122818 | 74 | 112 | 0.0 | 1.0 | 0.00 | 0.24 | 0.00 | 76 | 1018.3 |
| 20260901122349 | 74 | 112 | 0.0 | 2.0 | 0.00 | 0.24 | 0.00 | 75 | 1018.3 |
| 20260901121816 | 74 | 112 | 0.0 | 0.0 | 0.00 | 0.24 | 0.00 | 76 | 1018.2 |
| 20260901121508 | 74 | 112 | 0.0 | 0.0 | 0.00 | 0.24 | 0.00 | 79 | 1014.6 |
| 20260901121327 | 75 | 112 | 0.0 | 0.0 | 0.00 | 0.24 | 0.00 | 76 | 1018.1 |
| 20260901120813 | 75 | 112 | 0.0 | 0.0 | 0.00 | 0.24 | 0.00 | 75 | 1018.1 |
| 20260901120324 | 74 | 112 | 0.0 | 0.0 | 0.00 | 0.24 | 0.00 | 76 | 1018.1 |
| 20260901120013 | 74 | 112 | 0.0 | 0.0 | 0.00 | 0.24 | 0.00 | 79 | 1014.5 |
| 20260901115816 | 75 | 112 | 0.0 | 0.0 | 0.00 | 0.24 | 0.00 | 75 | 1018.1 |
| 20260901115347 | 75 | 112 | 0.0 | 0.0 | 0.00 | 0.24 | 0.00 | 75 | 1018.0 |
| 20260901114814 | 75 | 112 | 0.0 | 2.0 | 0.00 | 0.24 | 0.00 | 75 | 1018.0 |
| 20260901114522 | 74 | 112 | 0.0 | 2.0 | 0.00 | 0.24 | 0.00 | 79 | 1014.4 |
| 20260901114345 | 75 | 112 | 0.0 | 2.0 | 0.00 | 0.24 | 0.00 | 75 | 1017.9 |
| 20260901113830 | 75 | 110 | 1.0 | 2.0 | 0.00 | 0.24 | 0.00 | 75 | 1017.9 |
| 20260901113320 | 75 | 81 | 0.0 | 2.0 | 0.00 | 0.24 | 0.00 | 74 | 1017.9 |
| 20260901113026 | 75 | 81 | 0.0 | 2.0 | 0.00 | 0.24 | 0.00 | 78 | 1014.3 |
| 20260901112828 | 75 | 81 | 0.0 | 2.0 | 0.00 | 0.24 | 0.00 | 74 | 1017.7 |
| 20260901112318 | 75 | 81 | 0.0 | 0.0 | 0.00 | 0.24 | 0.00 | 73 | 1017.7 |
| 20260901111826 | 75 | 81 | 0.0 | 0.0 | 0.00 | 0.24 | 0.00 | 73 | 1017.7 |
| 20260901111530 | 75 | 81 | 0.0 | 1.0 | 0.00 | 0.24 | 0.00 | 77 | 1014.3 |
| 20260901111317 | 75 | 81 | 0.0 | 1.0 | 0.00 | 0.24 | 0.00 | 73 | 1017.7 |
| 20260901110844 | 75 | 81 | 0.0 | 2.0 | 0.00 | 0.24 | 0.00 | 73 | 1017.7 |
| 20260901110315 | 75 | 81 | 0.0 | 2.0 | 0.00 | 0.24 | 0.00 | 73 | 1017.7 |
| 20260901110023 | 75 | 81 | 0.0 | 2.0 | 0.00 | 0.24 | 0.00 | 76 | 1014.3 |
| 20260901105842 | 75 | 81 | 0.0 | 2.0 | 0.00 | 0.24 | 0.00 | 73 | 1017.7 |
| 20260901105315 | 75 | 81 | 0.0 | 2.0 | 0.00 | 0.24 | 0.00 | 73 | 1017.8 |
| 20260901104823 | 75 | 81 | 0.0 | 0.0 | 0.00 | 0.24 | 0.00 | 73 | 1017.9 |
| 20260901104516 | 75 | 81 | 0.0 | 0.0 | 0.00 | 0.24 | 0.00 | 77 | 1014.4 |
| 20260901104334 | 75 | 81 | 0.0 | 0.0 | 0.00 | 0.24 | 0.00 | 74 | 1017.9 |
| 20260901103821 | 76 | 81 | 0.0 | 0.0 | 0.00 | 0.24 | 0.00 | 72 | 1018.0 |
| 20260901103331 | 76 | 81 | 0.0 | 2.0 | 0.00 | 0.24 | 0.00 | 72 | 1017.9 |
| 20260901103028 | 75 | 81 | 0.0 | 2.0 | 0.00 | 0.24 | 0.00 | 76 | 1014.4 |
| 20260901102818 | 76 | 81 | 0.0 | 2.0 | 0.00 | 0.24 | 0.00 | 72 | 1017.9 |
| 20260901102329 | 76 | 81 | 0.0 | 2.0 | 0.00 | 0.24 | 0.00 | 72 | 1018.0 |
| 20260901101816 | 76 | 81 | 0.0 | 2.0 | 0.00 | 0.24 | 0.00 | 72 | 1017.9 |
| 20260901101533 | 75 | 81 | 0.0 | 2.0 | 0.00 | 0.24 | 0.00 | 76 | 1014.4 |
| 20260901101327 | 76 | 81 | 0.0 | 2.0 | 0.00 | 0.24 | 0.00 | 72 | 1018.0 |
| 20260901100815 | 76 | 81 | 0.0 | 2.0 | 0.00 | 0.24 | 0.00 | 72 | 1017.9 |
| 20260901100346 | 76 | 81 | 0.0 | 1.0 | 0.00 | 0.24 | 0.00 | 73 | 1017.9 |
| 20260901100030 | 75 | 81 | 0.0 | 2.0 | 0.00 | 0.24 | 0.00 | 77 | 1014.4 |
| 20260901095816 | 76 | 81 | 0.0 | 2.0 | 0.00 | 0.24 | 0.00 | 74 | 1017.9 |
| 20260901095327 | 76 | 81 | 0.0 | 2.0 | 0.00 | 0.24 | 0.00 | 74 | 1017.9 |
| 20260901094815 | 75 | 81 | 0.0 | 0.0 | 0.00 | 0.24 | 0.00 | 74 | 1018.0 |
| 20260901094516 | 75 | 81 | 0.0 | 0.0 | 0.00 | 0.24 | 0.00 | 78 | 1014.5 |
| 20260901094326 | 76 | 81 | 0.0 | 0.0 | 0.00 | 0.24 | 0.00 | 74 | 1018.0 |
| 20260901093814 | 76 | 81 | 0.0 | 0.0 | 0.00 | 0.24 | 0.00 | 75 | 1018.1 |
| 20260901093325 | 76 | 81 | 0.0 | 0.0 | 0.00 | 0.24 | 0.00 | 74 | 1018.1 |
| 20260901093021 | 75 | 81 | 0.0 | 0.0 | 0.00 | 0.24 | 0.00 | 78 | 1014.6 |
| 20260901092832 | 76 | 81 | 0.0 | 0.0 | 0.00 | 0.24 | 0.00 | 75 | 1018.1 |
| 20260901092323 | 76 | 81 | 0.0 | 0.0 | 0.00 | 0.24 | 0.00 | 75 | 1018.1 |
| 20260901091814 | 76 | 81 | 0.0 | 0.0 | 0.00 | 0.24 | 0.00 | 75 | 1018.2 |
| 20260901091527 | 75 | 81 | 0.0 | 0.0 | 0.00 | 0.24 | 0.00 | 79 | 1014.7 |
| 20260901091325 | 76 | 81 | 0.0 | 0.0 | 0.00 | 0.24 | 0.00 | 75 | 1018.2 |
| 20260901090852 | 76 | 81 | 0.0 | 2.0 | 0.00 | 0.24 | 0.00 | 74 | 1018.1 |
| 20260901090323 | 76 | 81 | 0.0 | 2.0 | 0.00 | 0.24 | 0.00 | 73 | 1018.1 |
| 20260901090030 | 75 | 81 | 0.0 | 2.0 | 0.00 | 0.24 | 0.00 | 76 | 1014.6 |
| 20260901085830 | 76 | 81 | 0.0 | 0.0 | 0.00 | 0.24 | 0.00 | 73 | 1018.1 |
| 20260901085321 | 76 | 81 | 0.0 | 0.0 | 0.00 | 0.24 | 0.00 | 72 | 1018.1 |
| 20260901084829 | 76 | 81 | 0.0 | 0.0 | 0.00 | 0.24 | 0.00 | 73 | 1018.1 |
| 20260901084513 | 76 | 81 | 0.0 | 0.0 | 0.00 | 0.24 | 0.00 | 76 | 1014.7 |
| 20260901084320 | 76 | 81 | 0.0 | 0.0 | 0.00 | 0.24 | 0.00 | 72 | 1018.2 |
| 20260901083828 | 77 | 81 | 0.0 | 0.0 | 0.00 | 0.24 | 0.00 | 71 | 1018.2 |
| 20260901083319 | 77 | 81 | 0.0 | 0.0 | 0.00 | 0.24 | 0.00 | 71 | 1018.1 |
| 20260901083018 | 76 | 81 | 0.0 | 2.0 | 0.00 | 0.24 | 0.00 | 74 | 1014.6 |
| 20260901082847 | 77 | 81 | 0.0 | 2.0 | 0.00 | 0.24 | 0.00 | 71 | 1018.1 |
| 20260901082321 | 77 | 81 | 0.0 | 2.0 | 0.00 | 0.24 | 0.00 | 70 | 1018.1 |
| 20260901081827 | 77 | 81 | 0.0 | 2.0 | 0.00 | 0.24 | 0.00 | 69 | 1018.0 |
| 20260901081524 | 77 | 81 | 0.0 | 2.0 | 0.00 | 0.24 | 0.00 | 73 | 1014.6 |
| 20260901081318 | 77 | 81 | 0.0 | 2.0 | 0.00 | 0.24 | 0.00 | 69 | 1018.1 |
| 20260901080826 | 77 | 81 | 0.0 | 2.0 | 0.00 | 0.24 | 0.00 | 68 | 1018.0 |
| 20260901080317 | 78 | 81 | 0.0 | 2.0 | 0.00 | 0.24 | 0.00 | 68 | 1018.1 |
| 20260901080028 | 77 | 81 | 0.0 | 2.0 | 0.00 | 0.24 | 0.00 | 72 | 1014.6 |
| 20260901075825 | 78 | 81 | 0.0 | 2.0 | 0.00 | 0.24 | 0.00 | 68 | 1018.1 |
| 20260901075336 | 78 | 81 | 0.0 | 2.0 | 0.00 | 0.24 | 0.00 | 68 | 1018.1 |
| 20260901074841 | 77 | 81 | 0.0 | 2.0 | 0.00 | 0.24 | 0.00 | 68 | 1018.1 |
| 20260901074512 | 77 | 81 | 0.0 | 2.0 | 0.00 | 0.24 | 0.00 | 72 | 1014.6 |
| 20260901074331 | 78 | 81 | 0.0 | 2.0 | 0.00 | 0.24 | 0.00 | 68 | 1018.1 |
| 20260901073818 | 78 | 81 | 0.0 | 2.0 | 0.00 | 0.24 | 0.00 | 68 | 1018.0 |
| 20260901073313 | 78 | 81 | 0.0 | 2.0 | 0.00 | 0.24 | 0.00 | 68 | 1018.0 |
| 20260901073014 | 77 | 81 | 0.0 | 2.0 | 0.00 | 0.24 | 0.00 | 71 | 1014.5 |
| 20260901072821 | 78 | 81 | 0.0 | 2.0 | 0.00 | 0.24 | 0.00 | 68 | 1018.0 |
| 20260901072330 | 77 | 81 | 0.0 | 0.0 | 0.00 | 0.24 | 0.00 | 68 | 1018.0 |
| 20260901071818 | 78 | 81 | 0.0 | 0.0 | 0.00 | 0.24 | 0.00 | 69 | 1017.9 |
| 20260901071503 | 77 | 81 | 0.0 | 0.0 | 0.00 | 0.24 | 0.00 | 72 | 1014.4 |
| 20260901071329 | 78 | 81 | 0.0 | 0.0 | 0.00 | 0.24 | 0.00 | 68 | 1018.0 |
| 20260901070814 | 78 | 81 | 0.0 | 2.0 | 0.00 | 0.24 | 0.00 | 67 | 1017.9 |
| 20260901070324 | 79 | 81 | 0.0 | 2.0 | 0.00 | 0.24 | 0.00 | 67 | 1017.9 |
| 20260901070003 | 78 | 81 | 0.0 | 2.0 | 0.00 | 0.24 | 0.00 | 70 | 1014.4 |
| 20260901065828 | 79 | 84 | 1.0 | 2.0 | 0.00 | 0.24 | 0.24 | 67 | 1017.8 |
| 20260901065317 | 78 | 84 | 1.0 | 1.0 | 0.00 | 0.24 | 0.24 | 67 | 1017.8 |
| 20260901064825 | 78 | 84 | 1.0 | 2.0 | 0.00 | 0.24 | 0.24 | 67 | 1017.7 |
| 20260901064506 | 78 | 82 | 0.0 | 2.0 | 0.00 | 0.24 | 0.24 | 71 | 1014.3 |
| 20260901064315 | 78 | 82 | 0.0 | 2.0 | 0.00 | 0.24 | 0.24 | 68 | 1017.7 |
| 20260901063823 | 78 | 82 | 0.0 | 1.0 | 0.00 | 0.24 | 0.24 | 68 | 1017.7 |
| 20260901063318 | 78 | 82 | 0.0 | 1.0 | 0.00 | 0.24 | 0.24 | 67 | 1017.7 |
| 20260901063022 | 78 | 82 | 0.0 | 0.0 | 0.00 | 0.24 | 0.24 | 70 | 1014.3 |
| 20260901062826 | 79 | 82 | 0.0 | 1.0 | 0.00 | 0.24 | 0.24 | 66 | 1017.7 |
| 20260901062317 | 79 | 82 | 0.0 | 1.0 | 0.00 | 0.24 | 0.24 | 66 | 1017.7 |
| 20260901061823 | 79 | 82 | 1.0 | 2.0 | 0.00 | 0.24 | 0.24 | 65 | 1017.7 |
| 20260901061520 | 79 | 90 | 0.0 | 2.0 | 0.00 | 0.24 | 0.24 | 68 | 1014.3 |
| 20260901061314 | 79 | 90 | 0.0 | 2.0 | 0.00 | 0.24 | 0.24 | 65 | 1017.7 |
| 20260901060821 | 80 | 85 | 1.0 | 3.0 | 0.00 | 0.24 | 0.24 | 64 | 1017.7 |
| 20260901060331 | 80 | 81 | 1.0 | 3.0 | 0.00 | 0.24 | 0.24 | 64 | 1017.7 |
| 20260901060005 | 79 | 75 | 2.0 | 3.0 | 0.00 | 0.24 | 0.24 | 67 | 1014.2 |
| 20260901055818 | 80 | 93 | 1.0 | 3.0 | 0.00 | 0.24 | 0.24 | 63 | 1017.7 |
| 20260901055349 | 80 | 85 | 2.0 | 4.0 | 0.00 | 0.24 | 0.24 | 63 | 1017.7 |
| 20260901054815 | 80 | 112 | 1.0 | 4.0 | 0.00 | 0.24 | 0.24 | 62 | 1017.7 |
| 20260901054503 | 80 | 101 | 1.0 | 2.0 | 0.00 | 0.24 | 0.24 | 66 | 1014.3 |
| 20260901054346 | 80 | 79 | 1.0 | 2.0 | 0.00 | 0.24 | 0.24 | 62 | 1017.7 |
| 20260901053817 | 81 | 97 | 1.0 | 2.0 | 0.00 | 0.24 | 0.24 | 61 | 1017.7 |
| 20260901053328 | 81 | 80 | 1.0 | 2.0 | 0.00 | 0.24 | 0.24 | 60 | 1017.6 |
| 20260901053007 | 80 | 92 | 1.0 | 2.0 | 0.00 | 0.24 | 0.24 | 63 | 1014.2 |
| 20260901052816 | 81 | 77 | 1.0 | 2.0 | 0.00 | 0.24 | 0.24 | 60 | 1017.6 |
| 20260901052347 | 81 | 90 | 1.0 | 2.0 | 0.00 | 0.24 | 0.24 | 58 | 1017.6 |
| 20260901051814 | 81 | 94 | 0.0 | 2.0 | 0.00 | 0.24 | 0.24 | 58 | 1017.6 |
| 20260901051518 | 81 | 94 | 0.0 | 4.0 | 0.00 | 0.24 | 0.24 | 61 | 1014.3 |
| 20260901051323 | 82 | 94 | 0.0 | 4.0 | 0.00 | 0.24 | 0.24 | 58 | 1017.7 |
| 20260901050829 | 82 | 95 | 1.0 | 4.0 | 0.00 | 0.24 | 0.24 | 58 | 1017.7 |
| 20260901050341 | 82 | 111 | 1.0 | 2.0 | 0.00 | 0.24 | 0.24 | 57 | 1017.7 |
| 20260901050023 | 81 | 113 | 0.0 | 3.0 | 0.00 | 0.24 | 0.24 | 60 | 1014.1 |
| 20260901045828 | 82 | 115 | 0.0 | 3.0 | 0.00 | 0.24 | 0.24 | 57 | 1017.6 |
| 20260901045319 | 82 | 98 | 1.0 | 3.0 | 0.00 | 0.24 | 0.24 | 56 | 1017.6 |
| 20260901044828 | 82 | 105 | 1.0 | 2.0 | 0.00 | 0.24 | 0.24 | 55 | 1017.7 |
| 20260901044506 | 82 | 105 | 0.0 | 2.0 | 0.00 | 0.24 | 0.24 | 58 | 1014.1 |
| 20260901044316 | 82 | 105 | 1.0 | 2.0 | 0.00 | 0.24 | 0.24 | 55 | 1017.6 |
| 20260901043821 | 83 | 107 | 1.0 | 3.0 | 0.00 | 0.24 | 0.24 | 54 | 1017.7 |
| 20260901043350 | 82 | 100 | 1.0 | 3.0 | 0.00 | 0.24 | 0.24 | 54 | 1017.8 |
| 20260901043008 | 82 | 89 | 0.0 | 2.0 | 0.00 | 0.24 | 0.24 | 57 | 1014.2 |
| 20260901042814 | 83 | 101 | 0.0 | 2.0 | 0.00 | 0.24 | 0.24 | 53 | 1017.7 |
| 20260901042343 | 83 | 103 | 0.0 | 3.0 | 0.00 | 0.24 | 0.24 | 52 | 1017.7 |
| 20260901041827 | 83 | 119 | 0.0 | 3.0 | 0.00 | 0.24 | 0.24 | 51 | 1017.4 |
| 20260901041513 | 83 | 115 | 1.0 | 2.0 | 0.00 | 0.24 | 0.24 | 55 | 1014.0 |
| 20260901041335 | 83 | 137 | 0.0 | 2.0 | 0.00 | 0.24 | 0.24 | 52 | 1017.4 |
| 20260901040819 | 83 | 140 | 0.0 | 2.0 | 0.00 | 0.24 | 0.24 | 51 | 1017.3 |
| 20260901040348 | 83 | 141 | 0.0 | 2.0 | 0.00 | 0.24 | 0.24 | 51 | 1017.4 |
| 20260901040021 | 83 | 141 | 0.0 | 2.0 | 0.00 | 0.24 | 0.24 | 54 | 1014.0 |
| 20260901035814 | 84 | 141 | 0.0 | 2.0 | 0.00 | 0.24 | 0.24 | 50 | 1017.4 |
| 20260901035346 | 83 | 128 | 0.0 | 2.0 | 0.00 | 0.24 | 0.24 | 51 | 1017.5 |
| 20260901034833 | 84 | 128 | 0.0 | 2.0 | 0.00 | 0.24 | 0.24 | 50 | 1017.4 |
| 20260901034504 | 83 | 128 | 0.0 | 2.0 | 0.00 | 0.24 | 0.24 | 53 | 1014.0 |
| 20260901034324 | 84 | 129 | 0.0 | 2.0 | 0.00 | 0.24 | 0.24 | 49 | 1017.4 |
| 20260901033817 | 84 | 129 | 0.0 | 2.0 | 0.00 | 0.24 | 0.24 | 49 | 1017.4 |
| 20260901033329 | 84 | 130 | 0.0 | 2.0 | 0.00 | 0.24 | 0.24 | 48 | 1017.3 |
| 20260901033006 | 84 | 133 | 0.0 | 1.0 | 0.00 | 0.24 | 0.24 | 51 | 1013.8 |
| 20260901032816 | 84 | 119 | 0.0 | 1.0 | 0.00 | 0.24 | 0.24 | 47 | 1017.2 |
| 20260901032327 | 84 | 135 | 1.0 | 2.0 | 0.00 | 0.24 | 0.24 | 47 | 1017.1 |
| 20260901031854 | 84 | 144 | 0.0 | 2.0 | 0.00 | 0.24 | 0.24 | 47 | 1017.1 |
| 20260901031512 | 84 | 110 | 1.0 | 2.0 | 0.00 | 0.24 | 0.24 | 51 | 1013.7 |
| 20260901031325 | 84 | 125 | 0.0 | 2.0 | 0.00 | 0.24 | 0.24 | 48 | 1017.0 |
| 20260901030831 | 84 | 142 | 0.0 | 2.0 | 0.00 | 0.24 | 0.24 | 50 | 1017.0 |
| 20260901030324 | 84 | 203 | 0.0 | 2.0 | 0.00 | 0.24 | 0.24 | 50 | 1016.9 |
| 20260901030016 | 84 | 207 | 0.0 | 2.0 | 0.00 | 0.24 | 0.24 | 54 | 1013.5 |
| 20260901025830 | 84 | 245 | 0.0 | 2.0 | 0.00 | 0.24 | 0.24 | 50 | 1016.9 |
| 20260901025321 | 84 | 245 | 0.0 | 0.0 | 0.00 | 0.24 | 0.24 | 49 | 1016.8 |
| 20260901024828 | 84 | 245 | 0.0 | 0.0 | 0.00 | 0.24 | 0.24 | 49 | 1016.6 |
| 20260901024529 | 84 | 245 | 0.0 | 0.0 | 0.00 | 0.24 | 0.24 | 52 | 1013.2 |
| 20260901024325 | 84 | 245 | 0.0 | 0.0 | 0.00 | 0.24 | 0.24 | 48 | 1016.5 |
| 20260901023853 | 85 | 245 | 0.0 | 0.0 | 0.00 | 0.24 | 0.24 | 49 | 1016.5 |
| 20260901023342 | 85 | 245 | 0.0 | 2.0 | 0.00 | 0.24 | 0.24 | 48 | 1016.5 |
| 20260901023004 | 84 | 245 | 0.0 | 2.0 | 0.00 | 0.24 | 0.24 | 51 | 1013.1 |
| 20260901022828 | 85 | 286 | 0.0 | 2.0 | 0.00 | 0.24 | 0.24 | 48 | 1016.6 |
| 20260901022319 | 85 | 294 | 0.0 | 2.0 | 0.00 | 0.24 | 0.24 | 47 | 1016.5 |
| 20260901021827 | 85 | 294 | 0.0 | 2.0 | 0.00 | 0.24 | 0.24 | 47 | 1016.4 |
| 20260901021513 | 85 | 294 | 0.0 | 2.0 | 0.00 | 0.24 | 0.24 | 50 | 1012.8 |
| 20260901021339 | 85 | 294 | 0.0 | 0.0 | 0.00 | 0.24 | 0.24 | 46 | 1016.3 |
| 20260901020846 | 86 | 294 | 0.0 | 2.0 | 0.00 | 0.24 | 0.24 | 46 | 1016.2 |
| 20260901020316 | 86 | 294 | 0.0 | 2.0 | 0.00 | 0.24 | 0.24 | 45 | 1016.1 |
| 20260901020013 | 85 | 294 | 0.0 | 2.0 | 0.00 | 0.24 | 0.24 | 48 | 1012.6 |
| 20260901015844 | 86 | 294 | 0.0 | 2.0 | 0.00 | 0.24 | 0.24 | 45 | 1016.1 |
| 20260901015315 | 86 | 294 | 0.0 | 2.0 | 0.00 | 0.24 | 0.24 | 45 | 1016.1 |
| 20260901014823 | 86 | 290 | 1.0 | 2.0 | 0.00 | 0.24 | 0.24 | 44 | 1016.1 |
| 20260901014520 | 86 | 306 | 0.0 | 2.0 | 0.00 | 0.24 | 0.24 | 48 | 1012.5 |
| 20260901014318 | 87 | 310 | 1.0 | 2.0 | 0.00 | 0.24 | 0.24 | 44 | 1015.9 |
| 20260901013823 | 87 | 290 | 1.0 | 2.0 | 0.00 | 0.24 | 0.24 | 44 | 1016.0 |
| 20260901013313 | 87 | 307 | 1.0 | 2.0 | 0.00 | 0.24 | 0.24 | 43 | 1015.9 |
| 20260901013026 | 87 | 278 | 1.0 | 2.0 | 0.00 | 0.24 | 0.24 | 46 | 1012.3 |
| 20260901012820 | 87 | 246 | 0.0 | 2.0 | 0.00 | 0.24 | 0.24 | 42 | 1015.8 |
| 20260901012330 | 87 | 259 | 0.0 | 2.0 | 0.00 | 0.24 | 0.24 | 42 | 1015.9 |
| 20260901011817 | 88 | 259 | 1.0 | 2.0 | 0.00 | 0.24 | 0.24 | 42 | 1016.0 |
| 20260901011504 | 87 | 261 | 1.0 | 3.0 | 0.00 | 0.24 | 0.24 | 45 | 1012.5 |
| 20260901011348 | 88 | 261 | 1.0 | 3.0 | 0.00 | 0.24 | 0.24 | 41 | 1016.0 |
| 20260901010814 | 89 | 247 | 1.0 | 3.0 | 0.00 | 0.24 | 0.24 | 40 | 1016.0 |
| 20260901010326 | 89 | 259 | 1.0 | 3.0 | 0.00 | 0.24 | 0.24 | 41 | 1015.9 |
| 20260901010013 | 88 | 325 | 1.0 | 3.0 | 0.00 | 0.24 | 0.24 | 44 | 1012.6 |
| 20260901005833 | 88 | 283 | 1.0 | 3.0 | 0.00 | 0.24 | 0.24 | 41 | 1016.0 |
| 20260901005322 | 88 | 271 | 1.0 | 2.0 | 0.00 | 0.24 | 0.24 | 40 | 1016.1 |
| 20260901004825 | 89 | 355 | 1.0 | 2.0 | 0.00 | 0.24 | 0.24 | 40 | 1016.1 |
| 20260901004532 | 89 | 315 | 1.0 | 4.0 | 0.00 | 0.24 | 0.24 | 42 | 1012.7 |
| 20260901004316 | 89 | 319 | 2.0 | 4.0 | 0.00 | 0.24 | 0.24 | 39 | 1016.2 |
| 20260901003827 | 89 | 344 | 2.0 | 4.0 | 0.00 | 0.24 | 0.24 | 40 | 1016.3 |
| 20260901003318 | 89 | 329 | 1.0 | 3.0 | 0.00 | 0.24 | 0.24 | 40 | 1016.3 |
| 20260901003025 | 88 | 283 | 1.0 | 2.0 | 0.00 | 0.24 | 0.24 | 44 | 1012.9 |
| 20260901002824 | 89 | 289 | 1.0 | 2.0 | 0.00 | 0.24 | 0.24 | 40 | 1016.3 |
| 20260901002315 | 89 | 273 | 1.0 | 3.0 | 0.00 | 0.24 | 0.24 | 40 | 1016.3 |
| 20260901001822 | 89 | 313 | 2.0 | 3.0 | 0.00 | 0.24 | 0.24 | 40 | 1016.3 |
| 20260901001529 | 88 | 296 | 1.0 | 3.0 | 0.00 | 0.24 | 0.24 | 44 | 1012.8 |
| 20260901001313 | 89 | 340 | 1.0 | 2.0 | 0.00 | 0.24 | 0.24 | 40 | 1016.4 |
| 20260901000819 | 89 | 24 | 1.0 | 3.0 | 0.00 | 0.24 | 0.24 | 41 | 1016.5 |
| 20260901000330 | 89 | 220 | 1.0 | 3.0 | 0.00 | 0.24 | 0.24 | 42 | 1016.5 |
| 20260901000013 | 88 | 38 | 0.0 | 3.0 | 0.00 | 0.24 | 0.24 | 44 | 1013.0 |
| 20260831235815 | 89 | 74 | 1.0 | 3.0 | 0.00 | 0.24 | 0.24 | 41 | 1016.4 |
| 20260831235326 | 89 | 338 | 1.0 | 3.0 | 0.00 | 0.24 | 0.24 | 41 | 1016.6 |
| 20260831234815 | 89 | 276 | 1.0 | 3.0 | 0.00 | 0.24 | 0.24 | 42 | 1016.7 |
| 20260831234513 | 88 | 87 | 0.0 | 4.0 | 0.00 | 0.24 | 0.24 | 45 | 1013.2 |
| 20260831234346 | 89 | 111 | 1.0 | 4.0 | 0.00 | 0.24 | 0.24 | 41 | 1016.7 |
| 20260831233851 | 89 | 144 | 1.0 | 4.0 | 0.00 | 0.24 | 0.24 | 42 | 1016.5 |
| 20260831233321 | 89 | 105 | 0.0 | 3.0 | 0.00 | 0.24 | 0.24 | 41 | 1016.5 |
| 20260831233019 | 88 | 76 | 2.0 | 3.0 | 0.00 | 0.24 | 0.24 | 44 | 1013.1 |
| 20260831232827 | 89 | 87 | 1.0 | 3.0 | 0.00 | 0.24 | 0.24 | 41 | 1016.6 |
| 20260831232316 | 89 | 92 | 1.0 | 7.0 | 0.00 | 0.24 | 0.24 | 41 | 1016.5 |
| 20260831231822 | 89 | 84 | 2.0 | 5.0 | 0.00 | 0.24 | 0.24 | 43 | 1016.5 |
| 20260831231527 | 88 | 30 | 2.0 | 8.0 | 0.00 | 0.24 | 0.24 | 45 | 1013.2 |
| 20260831231313 | 88 | 175 | 1.0 | 8.0 | 0.00 | 0.24 | 0.24 | 42 | 1016.7 |
| 20260831230819 | 88 | 76 | 4.0 | 8.0 | 0.00 | 0.24 | 0.24 | 42 | 1016.8 |
| 20260831230351 | 89 | 105 | 1.0 | 5.0 | 0.00 | 0.24 | 0.24 | 44 | 1016.8 |
| 20260831230004 | 89 | 143 | 2.0 | 6.0 | 0.00 | 0.24 | 0.24 | 48 | 1013.5 |
| 20260831225816 | 89 | 120 | 2.0 | 6.0 | 0.00 | 0.24 | 0.24 | 45 | 1016.9 |
| 20260831225328 | 89 | 86 | 1.0 | 5.0 | 0.00 | 0.24 | 0.24 | 45 | 1017.0 |
| 20260831224839 | 89 | 135 | 2.0 | 5.0 | 0.00 | 0.24 | 0.24 | 44 | 1017.2 |
| 20260831224510 | 89 | 97 | 1.0 | 6.0 | 0.00 | 0.24 | 0.24 | 47 | 1013.8 |
| 20260831224327 | 90 | 159 | 2.0 | 6.0 | 0.00 | 0.24 | 0.24 | 43 | 1017.2 |
| 20260831223814 | 89 | 144 | 1.0 | 6.0 | 0.00 | 0.24 | 0.24 | 45 | 1017.2 |
| 20260831223343 | 89 | 123 | 1.0 | 8.0 | 0.00 | 0.24 | 0.24 | 46 | 1017.2 |
| 20260831223018 | 88 | 123 | 5.0 | 8.0 | 0.00 | 0.24 | 0.24 | 48 | 1013.8 |
| 20260831222850 | 89 | 103 | 2.0 | 8.0 | 0.00 | 0.24 | 0.24 | 44 | 1017.3 |
| 20260831222319 | 89 | 105 | 1.0 | 7.0 | 0.00 | 0.24 | 0.24 | 46 | 1017.5 |
| 20260831221847 | 89 | 126 | 1.0 | 7.0 | 0.00 | 0.24 | 0.24 | 46 | 1017.7 |
| 20260831221532 | 87 | 94 | 2.0 | 7.0 | 0.00 | 0.24 | 0.24 | 50 | 1014.3 |
| 20260831221317 | 88 | 220 | 1.0 | 7.0 | 0.00 | 0.24 | 0.24 | 46 | 1017.9 |
| 20260831220824 | 88 | 131 | 2.0 | 7.0 | 0.00 | 0.24 | 0.24 | 45 | 1018.0 |
| 20260831220334 | 88 | 152 | 1.0 | 7.0 | 0.00 | 0.24 | 0.24 | 45 | 1018.1 |
| 20260831220033 | 88 | 143 | 2.0 | 8.0 | 0.00 | 0.24 | 0.24 | 49 | 1014.9 |
| 20260831215819 | 88 | 71 | 2.0 | 8.0 | 0.00 | 0.24 | 0.24 | 46 | 1018.3 |
| 20260831215350 | 88 | 116 | 1.0 | 8.0 | 0.00 | 0.24 | 0.24 | 46 | 1018.6 |
| 20260831214816 | 88 | 109 | 2.0 | 9.0 | 0.00 | 0.24 | 0.24 | 46 | 1018.6 |
| 20260831214527 | 87 | 101 | 4.0 | 11.0 | 0.00 | 0.24 | 0.24 | 51 | 1015.2 |
| 20260831214328 | 87 | 63 | 4.0 | 11.0 | 0.00 | 0.24 | 0.24 | 48 | 1018.7 |
| 20260831213814 | 87 | 98 | 5.0 | 10.0 | 0.00 | 0.24 | 0.24 | 50 | 1018.8 |
| 20260831213328 | 87 | 88 | 5.0 | 10.0 | 0.00 | 0.24 | 0.24 | 50 | 1018.9 |
| 20260831213014 | 87 | 91 | 3.0 | 10.0 | 0.00 | 0.24 | 0.24 | 54 | 1015.6 |
| 20260831212836 | 87 | 99 | 2.0 | 9.0 | 0.00 | 0.24 | 0.24 | 49 | 1019.0 |
| 20260831212326 | 86 | 149 | 2.0 | 9.0 | 0.00 | 0.24 | 0.24 | 50 | 1019.1 |
| 20260831211814 | 86 | 102 | 2.0 | 9.0 | 0.00 | 0.24 | 0.24 | 50 | 1019.3 |
| 20260831211524 | 85 | 153 | 1.0 | 9.0 | 0.00 | 0.24 | 0.24 | 54 | 1015.9 |
| 20260831211325 | 86 | 106 | 2.0 | 9.0 | 0.00 | 0.24 | 0.24 | 52 | 1019.3 |
| 20260831210854 | 86 | 115 | 2.0 | 10.0 | 0.00 | 0.24 | 0.24 | 51 | 1019.5 |
| 20260831210324 | 86 | 116 | 2.0 | 10.0 | 0.00 | 0.24 | 0.24 | 50 | 1019.5 |
| 20260831210029 | 85 | 90 | 1.0 | 10.0 | 0.00 | 0.24 | 0.24 | 56 | 1016.1 |
| 20260831205851 | 86 | 91 | 4.0 | 10.0 | 0.00 | 0.24 | 0.24 | 52 | 1019.6 |
| 20260831205322 | 86 | 130 | 2.0 | 5.0 | 0.00 | 0.24 | 0.24 | 55 | 1019.7 |
| 20260831204830 | 85 | 93 | 2.0 | 7.0 | 0.00 | 0.24 | 0.24 | 54 | 1019.8 |
| 20260831204528 | 84 | 134 | 2.0 | 7.0 | 0.00 | 0.24 | 0.24 | 58 | 1016.4 |
| 20260831204322 | 85 | 65 | 2.0 | 7.0 | 0.00 | 0.24 | 0.24 | 56 | 1019.9 |
| 20260831203814 | 84 | 188 | 2.0 | 8.0 | 0.00 | 0.24 | 0.24 | 56 | 1019.9 |
| 20260831203325 | 84 | 98 | 3.0 | 8.0 | 0.00 | 0.24 | 0.24 | 56 | 1019.9 |
| 20260831203011 | 83 | 126 | 2.0 | 9.0 | 0.00 | 0.24 | 0.24 | 61 | 1016.6 |
| 20260831202813 | 84 | 115 | 2.0 | 9.0 | 0.00 | 0.24 | 0.24 | 58 | 1020.0 |
| 20260831202324 | 83 | 117 | 3.0 | 13.0 | 0.00 | 0.24 | 0.24 | 60 | 1019.9 |
| 20260831201832 | 83 | 80 | 5.0 | 13.0 | 0.00 | 0.24 | 0.24 | 60 | 1019.9 |
| 20260831201528 | 82 | 94 | 6.0 | 11.0 | 0.00 | 0.24 | 0.24 | 64 | 1016.5 |
| 20260831201323 | 83 | 47 | 4.0 | 11.0 | 0.00 | 0.24 | 0.24 | 61 | 1020.0 |
| 20260831200831 | 82 | 87 | 1.0 | 9.0 | 0.00 | 0.24 | 0.24 | 63 | 1020.1 |
| 20260831200323 | 81 | 96 | 2.0 | 9.0 | 0.00 | 0.24 | 0.24 | 64 | 1020.0 |
| 20260831200038 | 81 | 85 | 2.0 | 7.0 | 0.00 | 0.24 | 0.24 | 67 | 1016.6 |
| 20260831195815 | 81 | 117 | 2.0 | 6.0 | 0.00 | 0.24 | 0.24 | 64 | 1020.1 |
| 20260831195347 | 80 | 139 | 3.0 | 7.0 | 0.00 | 0.24 | 0.24 | 65 | 1020.1 |
| 20260831194814 | 78 | 103 | 2.0 | 7.0 | 0.00 | 0.24 | 0.24 | 67 | 1020.3 |
| 20260831194529 | 78 | 159 | 2.0 | 8.0 | 0.00 | 0.24 | 0.24 | 71 | 1016.9 |
| 20260831194346 | 78 | 124 | 2.0 | 8.0 | 0.00 | 0.24 | 0.24 | 67 | 1020.3 |
| 20260831193814 | 78 | 168 | 2.0 | 8.0 | 0.00 | 0.24 | 0.24 | 66 | 1020.3 |
| 20260831193325 | 78 | 107 | 3.0 | 6.0 | 0.00 | 0.24 | 0.24 | 67 | 1020.3 |
| 20260831193034 | 78 | 130 | 1.0 | 4.0 | 0.00 | 0.24 | 0.24 | 71 | 1016.8 |
| 20260831192814 | 78 | 137 | 1.0 | 4.0 | 0.00 | 0.24 | 0.24 | 68 | 1020.2 |
| 20260831192324 | 78 | 109 | 1.0 | 6.0 | 0.00 | 0.24 | 0.24 | 69 | 1020.2 |
| 20260831191813 | 78 | 124 | 2.0 | 7.0 | 0.00 | 0.24 | 0.24 | 69 | 1020.3 |
| 20260831191515 | 77 | 103 | 2.0 | 7.0 | 0.00 | 0.24 | 0.24 | 73 | 1016.8 |
| 20260831191325 | 78 | 124 | 2.0 | 7.0 | 0.00 | 0.24 | 0.24 | 68 | 1020.3 |
| 20260831190833 | 78 | 106 | 2.0 | 6.0 | 0.00 | 0.24 | 0.24 | 68 | 1020.3 |
| 20260831190330 | 78 | 143 | 3.0 | 7.0 | 0.00 | 0.24 | 0.24 | 71 | 1020.2 |
| 20260831190041 | 77 | 85 | 2.0 | 5.0 | 0.00 | 0.24 | 0.24 | 76 | 1016.9 |
| 20260831185817 | 78 | 127 | 2.0 | 5.0 | 0.00 | 0.24 | 0.24 | 73 | 1020.5 |
| 20260831185327 | 78 | 182 | 1.0 | 5.0 | 0.00 | 0.24 | 0.24 | 73 | 1020.6 |
| 20260831184815 | 78 | 142 | 3.0 | 6.0 | 0.00 | 0.24 | 0.24 | 73 | 1020.4 |
| 20260831184511 | 77 | 114 | 2.0 | 4.0 | 0.00 | 0.24 | 0.24 | 77 | 1016.8 |
| 20260831184327 | 78 | 128 | 2.0 | 4.0 | 0.00 | 0.24 | 0.24 | 73 | 1020.3 |
| 20260831183815 | 78 | 135 | 2.0 | 4.0 | 0.00 | 0.24 | 0.24 | 72 | 1020.3 |
| 20260831183326 | 78 | 129 | 2.0 | 4.0 | 0.00 | 0.24 | 0.24 | 71 | 1020.3 |
| 20260831183007 | 77 | 140 | 2.0 | 6.0 | 0.00 | 0.24 | 0.24 | 74 | 1016.9 |
| 20260831182814 | 78 | 130 | 2.0 | 6.0 | 0.00 | 0.24 | 0.24 | 70 | 1020.3 |
| 20260831182346 | 78 | 151 | 1.0 | 6.0 | 0.00 | 0.24 | 0.24 | 69 | 1020.4 |
| 20260831181816 | 78 | 115 | 2.0 | 4.0 | 0.00 | 0.24 | 0.24 | 69 | 1020.5 |
| 20260831181507 | 77 | 140 | 1.0 | 4.0 | 0.00 | 0.24 | 0.24 | 73 | 1017.1 |
| 20260831181327 | 78 | 149 | 2.0 | 4.0 | 0.00 | 0.24 | 0.24 | 70 | 1020.6 |
| 20260831180815 | 78 | 103 | 2.0 | 4.0 | 0.00 | 0.24 | 0.24 | 71 | 1020.7 |
| 20260831180325 | 78 | 155 | 2.0 | 4.0 | 0.00 | 0.24 | 0.24 | 75 | 1020.6 |
| 20260831180006 | 77 | 138 | 1.0 | 4.0 | 0.00 | 0.24 | 0.24 | 78 | 1017.2 |
| 20260831175832 | 78 | 141 | 1.0 | 4.0 | 0.00 | 0.24 | 0.24 | 75 | 1020.5 |
| 20260831175323 | 78 | 123 | 1.0 | 2.0 | 0.00 | 0.24 | 0.24 | 77 | 1020.8 |
| 20260831174829 | 77 | 105 | 1.0 | 2.0 | 0.00 | 0.24 | 0.24 | 77 | 1020.9 |
| 20260831174509 | 76 | 116 | 0.0 | 4.0 | 0.00 | 0.24 | 0.24 | 81 | 1017.5 |
| 20260831174320 | 77 | 112 | 1.0 | 5.0 | 0.00 | 0.24 | 0.24 | 78 | 1021.1 |
| 20260831173828 | 77 | 99 | 2.0 | 6.0 | 0.00 | 0.24 | 0.24 | 77 | 1021.1 |
| 20260831173320 | 77 | 88 | 3.0 | 6.0 | 0.01 | 0.24 | 0.24 | 77 | 1021.2 |
| 20260831173004 | 76 | 119 | 2.0 | 8.0 | 0.02 | 0.24 | 0.24 | 81 | 1017.7 |
| 20260831172828 | 76 | 98 | 1.0 | 8.0 | 0.02 | 0.24 | 0.24 | 79 | 1021.1 |